Orbital Elements at Epoch 2459200.5 (2020-Dec-17.0) TDB
Reference: JPL 17 (heliocentric ecliptic J2000)
Element | Value | Uncertainty (1-sigma) | Units |
e | .06336162080390384 | 5.0831e-08 | |
a | 5.101971318311169 | 1.2093e-07 | au |
q | 4.778702146287944 | 3.3989e-07 | au |
i | 9.39020769823885 | 4.5255e-06 | deg |
node | 128.2197099205596 | 4.2351e-05 | deg |
peri | 192.6733561576297 | 7.0271e-05 | deg |
M | 295.1018248499969 | 5.8157e-05 | deg |
tp | 2459959.314166960489 (2023-Jan-14.81416696) | 0.0006891 | TDB |
period | 4209.257031871456 11.52 | 0.00014965 4.097e-07 | d yr |
n | .08552578216872213 | 3.0407e-09 | deg/d |
Q | 5.425240490334395 | 1.2859e-07 | au |
|
| | Orbit Determination Parameters
Additional Information
|